Regional Weather Roundup
Issued by NWS

Home | Current Version | Previous Version | Text Only | Print | Product List | Glossary On
Versions: 1 2 3 4 5 6 7 8 9 10 11 12 13 14 15 16 17 18 19 20 21 22 23 24 25 26 27
000
ASUS46 KSEW 250310
RWRWA

WASHINGTON REGIONAL WEATHER ROUNDUP
NATIONAL WEATHER SERVICE SEATTLE WA
800 PM PDT THU MAY 24 2018

NOTE:"FAIR" INDICATES FEW OR NO CLOUDS BELOW 12,000 FEET WITH NO
SIGNIFICANT WEATHER AND/OR OBSTRUCTIONS TO VISIBILITY.

WAZ507-509-555>559-250400-
SEATTLE, TACOMA, EVERETT, AND VICINITY

CITY           SKY/WX    TMP DP  RH WIND       PRES   REMARKS
EVERETT        CLEAR     57  49  74 NW8       30.04S
BOEING FIELD   CLEAR     67  52  58 NW6       30.01S
RENTON         CLEAR     68  52  56 NW6       30.00F
SEATAC AIRPORT MOCLDY    66  53  63 W5        30.02S
JBLM-MCCHORD   CLEAR     67  57  70 W5        30.02S
PUYALLUP       FAIR      66  55  68 CALM      30.02S
BREMERTON      CLEAR     64  54  69 E6        30.02S
JBLM-FT LEWIS  NOT AVBL
TACOMA NARROWS PTCLDY    63  52  67 S5        30.01F
$$

WAZ001-503-506-510-514-515-250400-
NORTH INTERIOR

CITY           SKY/WX    TMP DP  RH WIND       PRES   REMARKS
BELLINGHAM     CLEAR     61  46  57 S13       30.00F
FRIDAY HARBOR  PTCLDY    58  43  57 SW5       30.01F
EASTSOUND      CLEAR     61  48  63 S9G16     29.99S
PORT ANGELES   PTCLDY    53  46  77 NW10      30.06S
EDIZ HOOK      MOCLDY    54  46  74 W20       30.05S
PORT TOWNSEND  FAIR      55  48  76 NW5       30.04S
NAS WHIDBEY    NOT AVBL
ARLINGTON      CLEAR     58  49  72 NW13      30.03S
BURLINGTON     CLEAR     59  46  63 S6        30.03F
$$

WAZ020-022-039-040-504-511-512-250400-
SOUTHWEST INTERIOR

CITY           SKY/WX    TMP DP  RH WIND       PRES   REMARKS
SHELTON        CLEAR     65  51  60 SW14      30.00R
OLYMPIA        CLEAR     66  51  58 CALM      30.02S
CHEHALIS       FAIR      66  54  63 VRB3      30.03R
KELSO          CLEAR     64  53  67 NW7       30.03R
VANCOUVER      CLEAR     72  56  57 N8        29.98R
SCAPPOOSE, OR  CLEAR     69  55  60 VRB5      29.99R
PORTLAND, OR   PTCLDY    72  55  55 N7        29.99R
$$

WAZ021-516-517-250400-
WASHINGTON COAST

CITY           SKY/WX    TMP DP  RH WIND       PRES   REMARKS
FORKS          PTCLDY    53  44  71 NW9       30.09S
HOQUIAM        CLEAR     56  47  71 W14       30.07S
ASTORIA, OR    CLOUDY    56  49  77 NW12      30.08R
$$

WAZ019-023-024-040-567>569-250400-
CASCADE MOUNTAINS AND COLUMBIA GORGE

CITY           SKY/WX    TMP DP  RH WIND       PRES   REMARKS
STAMPEDE PASS  CLEAR     54  47  77 VRB7      30.06S
TROUTDALE, OR  CLEAR     73  54  51 VRB3      29.98R
HOOD RIVER, OR PTCLDY    70  52  52 W7        29.93R
THE DALLES, OR PTCLDY    77  53  43 NW14G22   29.88S
$$

WAZ026-027-041>044-520-521-250400-
EAST SLOPES

CITY           SKY/WX    TMP DP  RH WIND       PRES   REMARKS
OMAK           MOCLDY    80  48  32 S7        29.82S
WENATCHEE      CLEAR     79  43  27 NW15      29.86R
ELLENSBURG     CLEAR     71  46  40 NW22      29.92R
YAKIMA         CLEAR     83  41  22 N9        29.87R
SUNNYSIDE ARPT PTCLDY    80  49  33 CALM      29.83R
YAKIMA TC      FAIR      78  44  29 N8        29.87R
$$

WAZ028-034-035-250400-
COLUMBIA BASIN

CITY           SKY/WX    TMP DP  RH WIND       PRES   REMARKS
EPHRATA        CLEAR     82  47  29 W6        29.85R
MOSES LAKE     CLEAR     82  51  34 S8        29.85R
PASCO          CLEAR     85  46  25 SW10      29.82R
RICHLAND ARPT  CLEAR     85  47  25 S5        29.81S
HERMISTON, OR  CLEAR     84  48  28 SW7       29.83S
$$

WAZ036>038-250400-
NORTHEAST WASHINGTON

CITY           SKY/WX    TMP DP  RH WIND       PRES   REMARKS
SPOKANE GEIGER PTCLDY    74  53  48 S7        29.92S
SPOKANE FELTS  CLEAR     77  53  43 S8        29.91S
FAIRCHILD AFB  PTCLDY    72  55  53 S6        29.93R
COEURDALENE,ID CLEAR     70  54  56 S7        29.93S
DEER PARK      CLEAR     73  53  49 SW5       29.92R
$$

WAZ029>033-250400-
SOUTHEAST WASHINGTON

CITY           SKY/WX    TMP DP  RH WIND       PRES   REMARKS
PULLMAN        PTCLDY    69  57  65 S10       29.98S
LEWISTON, ID   CLOUDY    72  58  61 VRB3      29.93S
WALLA WALLA    CLEAR     83  49  30 CALM      29.87S
PENDLETON, OR  MOCLDY    79  46  31 W6        29.89R
$$




USA.gov is the U.S. government's official web portal to all federal, state and local government web resources and services.